GSAT-29

Last updated on Tue Sep 22 2026 00:03:14 GMT+0000 (Coordinated Universal Time)

1 43698U 18089A 26264.49999073 .00000081 00000+0 00000+0 0 9993 2 43698 0.0316 261.7132 0002322 276.7928 56.9700 1.00268826 28756
UTC large
Height (km)
Speed (km/s)
/
Latitude / Longitude
Inclination (degrees)
Orbital Period (minutes)
Azimuth
Elevation
Range (km)
Doppler Factor

Next 0 passes for location: London (51.5072 / 0.1276)

No passes found over London.
GSAT-29